STARLINK-1151, 45081

Orbit data source: Space-Track

STARLINK-1151, 45081 is a payload satellite owned by SpaceX/Seattle (US) in LEO that was launched on Wed, 29 Jan 2020 UTC via an FALCON 9 launch vehicle from the Air Force Eastern Test Range (AFETR). Payload-class satellites include a variety of spacecraft equipped with specific instruments for various scientific and technological missions. These include communications satellites like Starlink; space stations such as the ISS; scientific satellites like the Hubble; Earth observation satellites from companies like Planet Labs, Umbra, and HawkEye 360; GPS; miniature CubeSats for education and research; and military/defense satellites.

Loading next visibility...
Identifier
45081, 2020-006AP
Orbit
LEO
Country
Flag of USUS
Related business
Manufacturer
SpaceX/Seattle
Mission
Operational Commercial Communications
Bus & Motor
STARLINK, Unknown motor
Mass
260 kg wet, ~248 kg dry
Launch date (UTC)
2020-01-29 (6 years ago)
Launch vehicle
FALCON 9
Launch site
Air Force Eastern Test Range (AFETR)
Object type
Payload
Rocket body
Debris
Shape & HBR
Box + 1 Pan, 4.4 m
Radar Cross Section
13.562 m², Large (>1 m²)

Expand to show TLE details & history
Last TLE update: 22 hours ago

TLE from 22 hours ago
0 STARLINK-1151
1 45081U 20006AP  25260.20410496 -.00000162  00000-0  79968-5 0  9991
2 45081  53.0533 325.5016 0001159  78.0553 282.0565 15.06394698310592
Epoch: 2025-09-17T04:53Z
TLE epoch observation values (Epoch: 2025-09-17T04:53:54.668Z)
Latitude
-0.00009°
Longitude
-104.35967°
Altitude
547.939 km
Speed
7.589 km/s
True Right ascension
21h 42m 00s
True Declination
0° 00' 00"
Sunlit
Object was in full shadow at epoch
Visualization orbit readout
Latitude
Unknown
Longitude
Unknown
Altitude
Unknown
Speed
Unknown
Apparent Right ascension
Unknown
Apparent Declination
Unknown
Sunlit
N/A
Visualization observer readout
Local Sidereal Time
19:55:38
Azimuth
Unknown
Elevation
Unknown
Doppler factor
Unknown
Orbital elements
Apogee altitude
548.301 km
Perigee altitude
546.696 km
Semi-major axis
6,925.636 km
Eccentricity
0.00012
Inclination
53.0533°
RAAN
325.5016°
Arg. of periapsis
78.0553°
True anomaly
282.04351°
Mean anomaly
282.0565°
Eccentric anomaly
282.05001°
Mean motion
3.76577 °/min
Orbital period
95.6 mins
BSTAR
0.0000079968
Loading maneuver chart data...
Computing Atmospheric mass density...

Documentation

Showing up to 5 results
|